Hourly Data Report for October 19, 2016

All times are specified in Local Standard Time (LST). Add 1 hour to adjust for Daylight Saving Time where and when it is observed.

PANGNIRTUNG
NUNAVUT

66°08'36.300" N
65°42'40.500" W
22.60 m
2403049
71826
WXP

Download Data

Hourly Data (October 2016)
Hourly Data Report for October 19, 2016
Temp Definition
°C
Dew Point Temp Definition
°C
Rel Hum Definition
%
Wind Dir Definition
10's deg

Wind Spd Definition
km/h
Visibility Definition
km
Stn Press Definition
kPa
Hmdx Definition


Wind Chill Definition


Weather Definition


TIME
00:00 -9.7 -16.1 59 32 15   101.20   -16 LegendNANA
01:00 -10.5 -17.0 59 33 10   101.17   -16 LegendNANA
02:00 -11.1 -17.2 61 31 16   101.13   -18 LegendNANA
03:00 -11.5 -17.8 59 22 13   101.12   -18 LegendNANA
04:00 -11.1 -17.3 60 30 5   101.09   -14 LegendNANA
05:00 -11.6 -17.7 61 14 7   101.07   -16 LegendNANA
06:00 -12.0 -17.9 62 14 12   101.05   -18 LegendNANA
07:00 -11.7 -18.4 58 16 9   101.06   -17 LegendNANA
08:00 -12.4 -19.3 56 28 4   101.02   -15 LegendNANA
09:00 -10.8 -18.4 54 29 11   101.01   -17 LegendNANA
10:00 -10.9 -19.7 48 24 6   100.96   -15 LegendNANA
11:00 -10.2 -17.1 57 29 6   100.93   -14 LegendNANA
12:00 -10.4 -17.6 55 27 8   100.95   -15 LegendNANA
13:00 -10.8 -17.9 56 24 5   100.94   -14 LegendNANA
14:00 -9.5 -18.0 50 21 8   100.94   -14 LegendNANA
15:00 -8.9 -17.3 51 23 21   100.98   -17 LegendNANA
16:00 -10.4 -16.9 58 24 8   101.01   -15 LegendNANA
17:00 -10.1 -16.7 59 25 16   101.05   -17 LegendNANA
18:00 -9.7 -15.4 63 30 10   101.07   -15 LegendNANA
19:00 -9.8 -15.4 64 25 12   101.13   -16 LegendNANA
20:00 -10.4 -16.1 63 20 8   101.15   -15 LegendNANA
21:00 -9.8 -15.9 61 24 7   101.15   -14 LegendNANA
22:00 -10.9 -16.4 64 14 6   101.15   -15 LegendNANA
23:00 -11.9 -17.7 62 24 1   101.14   -13 LegendNANA

Notes on Data Quality.

Legend

  • E = Estimated
  • M = Missing
  • NA = Not Available
  • ‡ = Partner data that is not subject to review by the National Climate Archives
Date modified: